Regional Weather Roundup
Issued by NWS Mobile, AL

Home | Current Version | Previous Version | Text Only | Print | Product List | Glossary On
Versions: 1 2 3 4 5 6 7 8 9 10 11 12 13 14 15 16 17 18 19 20 21 22 23 24 25 26 27 28 29 30 31 32 33 34 35 36 37 38 39 40 41 42 43 44 45 46 47 48 49 50
709
ASUS44 KMOB 062212
RWRMOB
REGIONAL WEATHER ROUNDUP
NATIONAL WEATHER SERVICE MOBILE AL
500 PM CDT FRI MAY 06 2016

NOTE: "FAIR" INDICATES FEW OR NO CLOUDS BELOW 12,000 FEET WITH NO
      SIGNIFICANT WEATHER AND/OR OBSTRUCTIONS TO VISIBILITY.

  * THESE STATIONS ARE PART OF THE UNIVERSITY OF SOUTH ALABAMA
    MESONET AND ARE NOT UNDER NWS OR FAA QUALITY CONTROL.

ALZ061>064-062300-
COASTAL ALABAMA

CITY           SKY/WX    TMP DP  RH WIND       PRES   REMARKS
MOBILE REG APT MOSUNNY   75  46  35 NW10      29.98S
BROOKLEY FIELD SUNNY     76  46  34 N12       29.97F
USA CAMPUS*    NOT AVBL
DOG RIVER*     NOT AVBL


CITY           SKY/WX    TMP DP  RH WIND       PRES   REMARKS
MOUNT VERNON*  NOT AVBL
SARALAND*      NOT AVBL
BAY MINETTE*   NOT AVBL
LOXLEY*        NOT AVBL
ROBERTSDALE*   NOT AVBL
FAIRHOPE*      NOT AVBL
ELBERTA*       NOT AVBL
FOLEY*         NOT AVBL
GRAND BAY*     NOT AVBL
DAUPHIN ISLND* NOT AVBL
BON SCOUR NWR* NOT AVBL
GULF SHORES    SUNNY     74  47  37 NW14G25   29.95S

$$

ALZ051>060-062300-
INTERIOR SOUTHWEST AND SOUTH CENTRAL ALABAMA

CITY           SKY/WX    TMP DP  RH WIND       PRES   REMARKS
GREENVILLE     SUNNY     74  42  31 N13G21    29.94S
EVERGREEN      SUNNY     74  45  35 NW10      29.96S
CASTLEBERRY*   NOT AVBL
ATMORE*        NOT AVBL
DIXIE*         NOT AVBL
ANDALUSIA/OPP  MOSUNNY   78  44  29 NW15G23   29.93F
ANDALUSIA*     NOT AVBL
FLORALA APT    SUNNY     72  43  35 VRB5      29.94F
FLORALA*       NOT AVBL

$$

FLZ001>006-062300-
WESTERN FLORIDA PANHANDLE

CITY           SKY/WX    TMP DP  RH WIND       PRES   REMARKS
PENSACOLA      SUNNY     77  42  28 N14G21    29.94F
NAS PENSACOLA  MOSUNNY   77  41  27 N12G20    29.93F
MILTON         MOSUNNY   75  44  33 NW13G22   29.94F
WHTNG S FIELD  MOSUNNY   78  46  32 N16       29.94F


CITY           SKY/WX    TMP DP  RH WIND       PRES   REMARKS
WALNUT HILL*   NOT AVBL
JAY*           NOT AVBL
DUKE FIELD     MOSUNNY   76  43  30 N16       29.91F
CRESTVIEW      SUNNY     76  44  32 NW12G22   29.94F
VALPARAISO     MOSUNNY   78  42  28 N13G21    29.92S
DESTIN         SUNNY     79  46  31 N10       29.92S

$$

MSZ076-079-062300-
INTERIOR SOUTHEAST MISSISSIPPI

CITY           SKY/WX    TMP DP  RH WIND       PRES   REMARKS
LEAKESVILLE*   NOT AVBL
AGRICOLA*      NOT AVBL

$$

MARINE OBSERVATIONS

STATION/POSITION TIME  TEMP    WIND        PRES    WAVE
                       AIR SEA DIR/SP/G            HT/PER
                 (UTC) (F)     (DEG/KT/KT) (MB)    (FT/S)
PASCAGOULA       2100   73     260/  6/ 10 1015.1F
PETIT BOIS ISLND 2100   69     270/ 13/ 17 1016.1F
GRAND BAY        2000   71     330/  6     1017.0F
KATRINA CUT      2100   68     250/ 12       N/A
CEDAR POINT      2100   67     220/  8     1014.9F
E DAUPHIN ISLAND 2100   69     220/  7/ 11 1015.3F
MIDDLE BAY LIGHT 2100   73      10/  8     1015.2F
USCG MOBILE BAY  2100   74 71  350/  8/ 13 1015.4F
STATE DOCKS      2100   77 74              1014.8F
MEAHER PARK      2100   73     330/  7     1014.2F
WEEKS BAY        2000   73                   N/A
FORT MORGAN      2100   68     280/ 12/ 14 1014.7F
12 S ORANGE BCH  2150   71 74  280/ 17/ 21 1013.8F   2/ 3
PENSACOLA BAY    2100          350/  7/ 13 1014.1F
64 S DAUPHIN ISL 2100   66 74  330/ 12/ 17 1016.1F

$$

SELECTED LOCATIONS ACROSS THE REGION

CITY           SKY/WX    TMP DP  RH WIND       PRES   REMARKS
NEW ORLEANS    MOSUNNY   77  49  37 NE9       29.99F
GULFPORT       SUNNY     76  45  33 N10       29.98F
PASCAGOULA AP  MOSUNNY   76  48  37 NW7       29.98S
PASCAGOULA*    NOT AVBL
HATTIESBURG    SUNNY     76  44  32 N12       30.00F
LAUREL         SUNNY     75  45  33 CALM      30.01F
MERIDIAN       SUNNY     74  44  34 NW12      29.99F
JACKSON        MOSUNNY   74  46  36 N10       30.02F
MONTGOMERY     SUNNY     75  42  30 NW16      29.94F
TROY           SUNNY     74  44  34 NW12      29.94S
KINSTON*       NOT AVBL
GENEVA*        NOT AVBL
ASHFORD*       NOT AVBL
DOTHAN         SUNNY     75  41  29 N18       29.93F
PANAMA CITY    MOSUNNY   76  44  32 NW15G22   29.90S

$$





USA.gov is the U.S. government's official web portal to all federal, state and local government web resources and services.